Weather Roundup
Issued by NWS

Home | Current Version | Previous Version | Text Only | Print | Product List | Glossary On
Versions: 1 2 3 4 5 6 7 8 9 10 11 12 13 14 15 16 17 18 19 20 21 22 23 24 25 26 27 28 29 30 31 32 33 34 35 36 37 38 39 40 41 42 43 44 45 46 47 48 49 50
000
NZUS93 KARX 300410
HRRWXR

CURRENT HOURLY OBSERVATIONS ACROSS
MUCH OF THE UPPER MISSISSIPPI VALLEY
NATIONAL WEATHER SERVICE LA CROSSE WI
1100 PM CDT WED MAR 29 2017


...SOUTHEAST MINNESOTA...


CITY           SKY/WX    TMP DP  RH WIND       PRES   REMARKS
ROCHESTER      CLOUDY    39  36  89 E17       30.04F WCI  30
ROCHESTER/MAYO CLOUDY    39  39 100 E9G21     30.05F WCI  33
WINONA         CLOUDY    37  36  93 E13G18    30.10F WCI  29
AUSTIN         DRIZZLE   39  36  87 E23G30    30.01F WCI  29
ALBERT LEA     CLOUDY    37  37 100 E20G32    30.00F WCI  27
DODGE CENTER   LGT RAIN  37  36  93 E21G26    30.04F WCI  27
PRESTON        LGT RAIN  38  35  89 E16G26    30.04F WCI  29
OWATONNA       LGT RAIN  39  36  87 E16       30.04F WCI  30
FARIBAULT      LGT RAIN  39  39 100 NE13G18   30.06F WCI  32
$$

...ELSEWHERE IN MINNESOTA...


CITY           SKY/WX    TMP DP  RH WIND       PRES   REMARKS
MINNEAPOLIS    CLOUDY    43  36  76 E13       30.10F
INTNL FALLS    CLEAR     38  28  67 SE7       30.10F WCI  33
DULUTH         CLOUDY    31  28  89 E10       30.14F WCI  22
RED WING       DRIZZLE   43  37  81 E9        30.08F
REDWOOD FALLS  CLOUDY    41  37  86 E8        30.07F
MANKATO        LGT RAIN  40  37  89 E17G29    30.05F WCI  31
WORTHINGTON    LGT RAIN  37  36  96 NE16      30.00F WCI  28
FAIRMONT       LGT RAIN  39  37  92 E14       30.01F WCI  31
$$

...SOUTHWEST WISCONSIN...


CITY           SKY/WX    TMP DP  RH WIND       PRES   REMARKS
LA CROSSE      LGT RAIN  42  36  79 E14G23    30.09F
PRAIRIE DU CHI LGT RAIN  39  38  97 E14G24    30.03F WCI  31
BOSCOBEL       LGT RAIN  40  32  73 E8G23     30.07F WCI  34
LONE ROCK      CLOUDY    40  35  83 E18       30.10F HAZE    WCI  31
PLATTEVILLE    CLOUDY    39  39  99 NE23G33   30.01F WCI  29
FORT MC COY    LGT RAIN  38  36  89 E12       30.12F WCI  31
CAMP DOUGLAS   CLOUDY    37  32  81 NE13      30.12F WCI  29
MAUSTON-NEW LI DRIZZLE   38  32  78 E8        30.13S WCI  32
VIROQUA        CLOUDY    38  35  91 E16G23    30.07F WCI  28
WIS DELLS      LGT RAIN  38  31  75 E14       30.12S WCI  30
$$

...ELSEWHERE IN WISCONSIN...


CITY           SKY/WX    TMP DP  RH WIND       PRES   REMARKS
MILWAUKEE      CLOUDY    38  35  89 NE15      30.11F WCI  29
MADISON        LGT RAIN  38  35  89 E17       30.11F WCI  28
GREEN BAY      CLOUDY    37  32  82 NE10      30.20F WCI  30
EAU CLAIRE     CLOUDY    40  37  89 E9        30.12F WCI  34
BLACK RVR FLS  RAIN      37  37 100 E8G18     30.13F WCI  30
MEDFORD        CLOUDY    35  31  84 E8        30.15F WCI  29
WAUSAU         CLOUDY    34  31  88 E13       30.16F WCI  25
WIS RAPIDS     LGT RAIN  35  35 100 E12       30.17F WCI  27
MARSHFIELD     LGT RAIN  35  33  92 E14       30.14F WCI  26
RICE LAKE      CLOUDY    42  35  78 SE10      30.14F
$$

...NORTHEAST IOWA...


CITY           SKY/WX    TMP DP  RH WIND       PRES   REMARKS
WATERLOO       CLOUDY    40  37  89 E22G29    29.95R FOG     WCI  30
DUBUQUE        CLOUDY    39  37  92 NE17G33   29.97F WCI  30
DECORAH        LGT RAIN  39  37  93 E13       30.01S WCI  32
MASON CITY     LGT RAIN  39  36  89 E21G33    30.00F WCI  29
CHARLES CITY   CLOUDY    39  39 100 E23G32    29.98F FOG     WCI  29
OELWEIN        MIX PCPN  39  39 100 E26G35    29.94F WCI  28
$$

...ELSEWHERE IN IOWA...


CITY           SKY/WX    TMP DP  RH WIND       PRES   REMARKS
DES MOINES     PTCLDY    44  41  89 E22G29    29.84F
IOWA CITY      TSTM      43  40  89 E21G29    29.89F FOG
FORT DODGE     CLOUDY    39  36  87 E23G33    29.92F WCI  29
MARSHALLTOWN   HVY RAIN  40  39  97 E16G24    29.94R FOG     WCI  31
CEDAR RAPIDS   LGT RAIN  41  41 100 E25G33    29.87F
$$

...NORTHERN ILLINOIS...


CITY           SKY/WX    TMP DP  RH WIND       PRES   REMARKS
CHICAGO-OHARE  LGT RAIN  45  38  76 E12       30.04F
CHICAGO-MIDWAY LGT RAIN  46  39  76 NE18G28   30.04F
MOLINE         LGT RAIN  43  39  86 E21G31    29.90F
ROCKFORD       LGT RAIN  42  38  85 E17G28    30.04F
PEORIA         CLOUDY    50  45  83 E18G26    29.87F
$$

NOTE: "FAIR" INDICATES FEW OR NO CLOUDS BELOW 12,000 FEET WITH NO
SIGNIFICANT WEATHER AND/OR OBSTRUCTIONS TO VISIBILITY. WIND
SPEEDS ARE IN MILES-PER-HOUR.




USA.gov is the U.S. government's official web portal to all federal, state and local government web resources and services.